Home   Weather   Solothurn   Past weeks

Flag for Switzerland Past Weather in Solothurn, Solothurn, Switzerland — Yesterday and Last 2 Weeks

Now
29 °F

Chilly.


Feels Like: 25 °F
Forecast: 19 / 44 °F
Wind: 3 mph from Northwest

Location: Grenchen

Current Time: Dec 7, 2016 at 9:35:25 pm

Latest Report: Dec 7, 2016 at 8:00 pm


Visibility: N/A

Pressure: 30.71 "Hg

Humidity: 100%

Dew Point: 29 °F

Location of SolothurnLocation

Past Weather in Solothurn — Graph

°F

Solothurn Temperature Yesterday

Maximum temperature yesterday: 32 °F (at 4:00 pm)
Minimum temperature yesterday: 30 °F (at 11:00 pm)
Average temperature yesterday: 31 °F

High & Low Weather Summary for the Past Weeks

 TemperatureHumidityPressure
High49 °F (Nov 23, 2:00 pm)100% (Nov 24, 9:00 am)30.71 "Hg (Nov 24, 9:00 am)
Low22 °F (Nov 30, 5:00 am)52% (Nov 28, 4:00 pm)29.85 "Hg (Nov 25, 5:00 am)
Average35 °F90%30.28 "Hg
* Reported Nov 22 8:00 pm — Dec 7 8:00 pm, Solothurn, Weather by CustomWeather, © 2016

Note: Actual official high and low records may vary slightly from our data, if they occured in-between our weather recording intervals... More about our weather records

Advertising

Solothurn Weather History for the Previous 24 Hours

Scroll right to see more
 ConditionsComfort  
Time TempWeatherWind HumidityBarometerVisibility
8:00 pm
Wed, Dec 7
29 °FChilly.3 mph100%30.71 "HgN/A
7:00 pm29 °FChilly.2 mph99%30.69 "HgN/A
6:00 pm29 °FChilly.1 mph99%30.67 "HgN/A
5:00 pm29 °FChilly.2 mph99%30.66 "HgN/A
4:00 pm29 °FChilly.2 mph99%30.65 "HgN/A
1:00 pm28 °FChilly.1 mph98%30.63 "HgN/A
12:00 pm28 °FChilly.2 mph98%30.64 "HgN/A
11:00 am28 °FChilly.1 mph99%30.65 "HgN/A
10:00 am28 °FChilly.1 mph98%30.65 "HgN/A
9:00 am28 °FChilly.1 mph99%30.65 "HgN/A
8:00 am28 °FChilly.2 mph99%30.63 "HgN/A
7:00 am28 °FChilly.1 mph99%30.64 "HgN/A
6:00 am28 °FChilly.1 mph99%30.63 "HgN/A
5:00 am28 °FChilly.2 mph99%30.63 "HgN/A
4:00 am28 °FChilly.1 mph99%30.62 "HgN/A
3:00 am29 °FChilly.2 mph99%30.61 "HgN/A
2:00 am29 °FChilly.3 mph99%30.59 "HgN/A
12:00 am30 °FChilly.2 mph99%30.58 "HgN/A
11:00 pm
Tue, Dec 6
30 °FChilly.1 mph100%30.57 "HgN/A
10:00 pm30 °FChilly.2 mph99%30.57 "HgN/A
9:00 pm31 °FChilly.3 mph100%30.55 "HgN/A
Weather by CustomWeather, © 2016

See weather overviewHow to use our weather pages